Overview Statistics Trail Chart Weather Telemetry Raw packets
 

This is the latest recevied weather packets stored in our database for station/object IW2NTF-3. If no packets are shown the sender has not sent any weather packets the latest 10 day(s).

<< 531 532 533 534 535 536 537 >>
Time Temp. Humidity Pressure Rain* Wind** Luminosity Snow
1787935323 25° C 77% 1012.4 hPa 0 mm - 165 W/m² -
1787935263 25° C 78% 1012.3 hPa 0 mm - 190 W/m² -
1787935203 25° C 78% 1012.2 hPa 0 mm - 207 W/m² -
1787935143 25° C 79% 1012.2 hPa 0 mm - 225 W/m² -
1787935083 24.44° C 79% 1012.1 hPa 0 mm - 243 W/m² -
1787935023 24.44° C 78% 1012.1 hPa 0 mm - 265 W/m² -
1787934963 24.44° C 79% 1012.1 hPa 0 mm - 272 W/m² -
1787934903 24.44° C 78% 1012.3 hPa 0 mm - 274 W/m² -
1787934843 24.44° C 79% 1012.3 hPa 0 mm - 269 W/m² -
1787934783 24.44° C 79% 1012.2 hPa 0 mm - 265 W/m² -
1787934723 24.44° C 80% 1012.2 hPa 0 mm - 237 W/m² -
1787934663 24.44° C 80% 1012.4 hPa 0 mm - 285 W/m² -
1787934603 23.89° C 80% 1012.4 hPa 0 mm - 288 W/m² -
1787934543 23.89° C 81% 1012.4 hPa 0 mm - 285 W/m² -
1787934483 23.89° C 81% 1012.4 hPa 0 mm - 248 W/m² -
1787934423 23.89° C 81% 1012.4 hPa 0 mm - 225 W/m² -
1787934364 23.89° C 81% 1012.4 hPa 0 mm - 192 W/m² -
1787934303 23.89° C 81% 1012.3 hPa 0 mm - 151 W/m² -
1787934243 23.89° C 81% 1012.3 hPa 0.25 mm - 146 W/m² -
1787934183 23.89° C 81% 1012 hPa 0.25 mm - 144 W/m² -
1787934123 23.89° C 81% 1012.3 hPa 0.25 mm - 142 W/m² -
1787934063 23.89° C 81% 1012.3 hPa 0.25 mm - 141 W/m² -
1787934003 23.89° C 81% 1012.5 hPa 0.25 mm - 142 W/m² -
1787933943 23.89° C 81% 1012.5 hPa 0.51 mm - 158 W/m² -
1787933893 23.89° C 81% 1012.6 hPa 0.51 mm - 174 W/m² -

* Rain latest hour (hover to see other rain measurements)
** Current wind speed in m/s (hover to see current wind gust speed)